�N����,����,�~����,�C��,���x,�C��,����,���ϕ���,�ő�u�ԕ���,�ő厞����,���˗�,�I�_���x,�n�����x,�ő啗���N��,DTYPE
"23/07/03","00:10",0.0,23.9,91.2,1004.3,319.8,1.8,2.7,318.7,0.00,22.4,23.9,"00:07:20",1
"23/07/03","00:20",0.0,23.7,91.3,1003.8,294.5,1.2,2.0,333.3,0.00,22.2,23.7,"00:10:24",1
"23/07/03","00:30",0.0,23.7,91.4,1003.8,299.7,1.1,2.2,323.7,0.00,22.3,23.8,"00:25:12",1
"23/07/03","00:40",0.0,23.6,91.5,1004.3,278.2,0.7,1.1,293.4,0.00,22.2,23.9,"00:38:56",1
"23/07/03","00:50",0.0,23.6,91.6,1004.1,307.3,1.0,1.3,325.6,0.00,22.2,23.9,"00:41:04",1
"23/07/03","01:00",0.0,23.5,91.6,1004.1,318.4,0.6,1.4,332.8,0.00,22.1,23.8,"00:57:28",1
"23/07/03","01:10",0.0,23.3,91.8,1004.1,280.8,0.7,1.4,321.0,0.00,21.9,23.6,"01:09:20",1
"23/07/03","01:20",0.0,23.4,91.9,1003.8,319.3,1.5,1.9,314.2,0.00,22.0,23.6,"01:15:44",1
"23/07/03","01:30",0.0,23.3,92.0,1003.8,313.8,1.0,1.9,321.0,0.00,22.0,23.5,"01:20:32",1
"23/07/03","01:40",0.0,23.2,92.2,1003.8,312.0,1.2,2.1,337.3,0.00,21.9,23.5,"01:38:00",1
"23/07/03","01:50",0.0,23.3,92.4,1004.1,319.6,1.6,3.4,331.4,0.00,22.0,23.7,"01:45:12",1
"23/07/03","02:00",0.0,23.2,92.5,1004.1,328.2,1.6,2.8,332.3,0.00,22.0,23.7,"01:54:08",1
"23/07/03","02:10",0.0,23.3,92.6,1003.6,336.3,1.7,2.9,342.1,0.00,22.1,23.6,"02:03:20",1
"23/07/03","02:20",0.0,23.3,92.6,1003.6,322.7,1.5,2.6,309.8,0.00,22.1,23.7,"02:13:36",1
"23/07/03","02:30",0.0,23.4,92.6,1004.1,319.5,2.0,3.5,330.2,0.00,22.2,23.6,"02:23:52",1
"23/07/03","02:40",0.0,23.4,92.6,1004.3,334.8,1.8,2.8,334.4,0.00,22.2,23.6,"02:38:00",1
"23/07/03","02:50",0.0,23.5,92.5,1004.1,346.9,1.3,3.1,339.6,0.00,22.3,23.6,"02:40:16",1
"23/07/03","03:00",0.0,23.4,92.6,1003.8,340.5,1.2,2.5,332.5,0.00,22.2,23.4,"02:54:32",1
"23/07/03","03:10",0.0,23.6,92.6,1004.1,333.1,1.8,3.2,331.9,0.00,22.4,23.5,"03:06:40",1
"23/07/03","03:20",0.0,23.5,92.5,1004.1,315.2,1.5,2.8,344.2,0.00,22.3,23.4,"03:10:48",1
"23/07/03","03:30",0.0,23.4,92.5,1004.1,313.6,1.1,1.8,320.8,0.00,22.2,23.5,"03:25:20",1
"23/07/03","03:40",0.0,23.3,92.6,1004.5,325.5,0.7,1.4,354.7,0.00,22.1,23.5,"03:30:40",1
"23/07/03","03:50",0.0,23.4,92.7,1004.5,324.3,1.7,2.5,313.5,0.00,22.2,23.5,"03:42:32",1
"23/07/03","04:00",0.0,23.5,92.6,1004.3,1.7,1.1,2.0,15.1,0.00,22.3,23.5,"03:56:00",1
"23/07/03","04:10",0.0,23.5,92.6,1004.1,347.3,0.8,1.6,334.7,0.00,22.3,23.5,"04:04:40",1
"23/07/03","04:20",0.0,23.3,92.6,1003.6,323.5,0.6,1.7,324.5,0.00,22.1,23.4,"04:10:40",1
"23/07/03","04:30",0.0,22.9,92.7,1003.8,262.0,0.5,1.0,237.5,0.00,21.7,23.3,"04:26:00",1
"23/07/03","04:40",0.0,23.0,92.8,1004.1,319.8,1.1,1.6,327.3,0.00,21.8,23.3,"04:36:48",1
"23/07/03","04:50",0.0,22.8,92.9,1003.8,324.4,1.0,2.2,339.9,0.00,21.6,23.3,"04:40:24",1
"23/07/03","05:00",0.0,22.6,93.1,1004.1,313.9,1.0,1.9,327.5,0.00,21.5,23.1,"04:51:28",1
"23/07/03","05:10",0.0,22.6,93.2,1004.3,289.3,1.0,1.4,254.1,0.00,21.5,23.3,"05:05:20",1
"23/07/03","05:20",0.0,22.6,93.3,1004.3,333.1,1.0,1.6,346.0,0.00,21.5,23.4,"05:14:48",1
"23/07/03","05:30",0.0,22.4,93.4,1004.1,311.5,0.8,1.4,329.0,0.00,21.3,23.2,"05:29:12",1
"23/07/03","05:40",0.0,22.3,93.6,1004.1,321.3,1.1,1.6,324.1,0.00,21.3,23.2,"05:31:28",1
"23/07/03","05:50",0.0,22.3,93.7,1004.1,297.4,0.8,1.1,318.4,0.00,21.3,23.2,"05:43:20",1
"23/07/03","06:00",0.0,22.3,93.8,1003.8,293.8,1.0,1.3,320.1,0.00,21.3,23.2,"05:50:02",1
"23/07/03","06:10",0.0,22.5,94.0,1004.1,314.6,1.2,1.6,336.8,0.00,21.5,23.3,"06:03:12",1
"23/07/03","06:20",0.0,22.7,94.0,1004.1,334.1,1.0,2.0,319.8,0.01,21.7,23.1,"06:11:20",1
"23/07/03","06:30",0.0,22.8,94.1,1003.8,327.1,1.2,1.4,322.6,0.01,21.8,23.2,"06:24:32",1
"23/07/03","06:40",0.0,22.9,94.2,1004.3,335.9,1.0,1.6,338.0,0.01,22.0,23.2,"06:30:16",1
"23/07/03","06:50",0.0,23.3,94.3,1003.8,300.1,0.7,1.3,339.1,0.03,22.4,23.2,"06:40:08",1
"23/07/03","07:00",0.0,23.7,94.3,1004.3,329.9,0.7,1.2,345.6,0.04,22.8,23.2,"06:52:16",1
"23/07/03","07:10",0.0,23.9,94.2,1004.3,335.0,1.0,1.4,338.2,0.03,22.9,23.2,"07:02:40",1
"23/07/03","07:20",0.0,24.0,94.2,1004.3,324.1,1.1,1.8,342.7,0.03,23.0,23.0,"07:10:24",1
"23/07/03","07:30",0.0,23.9,94.0,1004.3,316.4,1.2,2.4,316.0,0.05,22.9,23.0,"07:28:56",1
"23/07/03","07:40",0.0,24.0,93.8,1004.1,332.4,1.7,2.7,337.6,0.04,23.0,23.0,"07:35:20",1
"23/07/03","07:50",0.0,24.5,93.5,1004.1,330.8,1.6,2.7,329.4,0.13,23.4,22.9,"07:42:08",1
"23/07/03","08:00",0.0,25.2,93.1,1004.1,335.8,1.2,2.9,347.7,0.17,24.0,23.0,"07:51:28",1
"23/07/03","08:10",0.0,26.0,91.9,1003.8,353.0,0.7,2.4,346.5,0.17,24.6,23.3,"08:02:24",1
"23/07/03","08:20",0.0,26.5,90.6,1003.6,348.7,0.6,1.7,333.5,0.20,24.9,23.0,"08:17:04",1
"23/07/03","08:30",0.0,27.1,88.2,1002.4,151.8,0.5,1.0,232.3,0.20,25.0,23.1,"08:25:28",1
"23/07/03","08:40",0.0,27.7,86.0,1002.9,165.3,0.6,1.2,180.8,0.26,25.2,23.1,"08:35:28",1
"23/07/03","08:50",0.0,28.3,82.1,1003.8,180.5,1.0,1.8,195.2,0.27,25.0,22.9,"08:49:04",1
"23/07/03","09:00",0.0,29.3,79.9,1004.1,168.2,0.6,1.4,224.4,0.32,25.5,23.1,"08:58:32",1
"23/07/03","09:10",0.0,29.5,77.4,1004.5,141.5,0.7,1.9,230.9,0.34,25.2,23.1,"09:03:36",1
"23/07/03","09:20",0.0,29.9,75.5,1004.3,147.1,0.7,1.8,181.1,0.28,25.1,23.0,"09:11:44",1
"23/07/03","09:30",0.0,30.4,73.8,1004.5,140.2,0.5,1.8,229.9,0.31,25.2,23.2,"09:22:56",1
"23/07/03","09:40",0.0,30.8,71.9,1004.3,167.9,0.6,1.4,228.4,0.37,25.2,23.1,"09:38:16",1
"23/07/03","09:50",0.0,31.2,70.6,1004.3,140.8,0.8,1.7,143.6,0.39,25.3,23.2,"09:41:12",1
"23/07/03","10:00",0.0,31.9,70.7,1004.1,126.3,0.8,1.8,111.0,0.42,26.0,23.2,"09:56:56",1
"23/07/03","10:10",0.0,32.2,70.0,1004.5,142.0,0.6,1.6,122.4,0.45,26.1,23.2,"10:04:16",1
"23/07/03","10:20",0.0,32.6,67.2,1004.3,157.6,0.6,1.8,204.5,0.41,25.8,23.1,"10:15:28",1
"23/07/03","10:30",0.0,32.1,65.1,1004.3,41.9,0.8,2.7,3.6,0.30,24.8,23.5,"10:20:24",1
"23/07/03","10:40",0.0,32.7,65.8,1004.1,64.0,0.7,1.4,45.5,0.45,25.5,23.4,"10:31:28",1
"23/07/03","10:50",0.0,32.1,64.4,1004.1,214.7,1.6,6.5,212.6,0.52,24.6,23.1,"10:42:32",1
"23/07/03","11:00",0.0,31.5,64.9,1004.1,235.5,1.1,3.1,164.9,0.29,24.1,23.3,"10:51:28",1
"23/07/03","11:10",0.0,32.7,66.0,1003.8,110.6,0.7,2.2,94.3,0.55,25.6,23.7,"11:07:52",1
"23/07/03","11:20",0.0,33.2,62.1,1003.6,192.9,0.7,2.4,120.9,0.54,25.0,23.4,"11:18:16",1
"23/07/03","11:30",0.0,33.1,61.5,1004.1,180.8,1.0,2.6,230.0,0.43,24.7,23.6,"11:25:52",1
"23/07/03","11:40",0.0,32.8,64.7,1003.8,163.7,1.7,3.6,147.5,0.51,25.3,23.6,"11:36:00",1
"23/07/03","11:50",0.0,31.9,66.0,1003.6,174.3,1.8,3.7,213.5,0.26,24.8,23.5,"11:48:32",1
"23/07/03","12:00",0.0,31.3,67.5,1002.9,169.0,2.2,4.8,167.7,0.25,24.6,23.6,"11:50:32",1
"23/07/03","12:10",0.0,31.3,67.6,1001.9,189.6,2.3,4.2,186.4,0.25,24.6,23.7,"12:01:04",1
"23/07/03","12:20",0.0,31.3,67.2,1002.2,180.5,1.8,3.1,213.6,0.27,24.5,23.7,"12:10:16",1
"23/07/03","12:30",0.0,32.0,66.1,1002.2,228.2,1.5,3.9,343.9,0.41,24.9,23.8,"12:20:02",1
"23/07/03","12:40",0.0,32.1,64.0,1001.9,301.4,1.2,2.6,356.2,0.32,24.5,23.8,"12:32:32",1
"23/07/03","12:50",0.0,32.3,65.3,1001.7,272.8,0.8,2.4,234.1,0.30,25.0,23.7,"12:47:20",1
"23/07/03","13:00",0.0,32.6,61.8,1001.7,235.8,0.8,3.7,235.8,0.33,24.4,23.9,"12:59:12",1
"23/07/03","13:10",0.0,32.0,63.5,1001.7,190.4,1.3,2.8,223.9,0.21,24.2,23.9,"13:05:44",1
"23/07/03","13:20",0.0,32.1,64.5,1001.7,180.7,1.2,2.8,202.2,0.27,24.6,23.9,"13:18:24",1
"23/07/03","13:30",0.0,31.9,64.2,1001.5,192.6,1.5,4.4,203.1,0.20,24.3,23.8,"13:26:08",1
"23/07/03","13:40",0.0,32.0,62.9,1001.5,205.2,1.3,3.2,240.5,0.27,24.1,24.1,"13:31:12",1
"23/07/03","13:50",0.0,32.2,63.7,1001.5,237.7,1.5,3.4,224.2,0.27,24.5,24.0,"13:47:36",1
"23/07/03","14:00",0.0,32.3,63.3,1001.2,239.2,0.7,1.8,204.8,0.21,24.5,23.9,"13:55:20",1
"23/07/03","14:10",0.0,31.9,63.1,1001.2,317.6,1.1,2.7,345.2,0.17,24.0,24.0,"14:04:32",1
"23/07/03","14:20",0.0,31.7,63.5,1000.5,332.1,1.2,2.5,319.4,0.17,24.0,24.2,"14:15:12",1
"23/07/03","14:30",0.0,31.6,64.1,1000.5,329.0,1.2,3.4,346.5,0.18,24.0,24.1,"14:25:12",1
"23/07/03","14:40",0.0,31.3,63.5,1000.3,338.6,1.2,3.3,346.8,0.15,23.6,24.4,"14:30:02",1
"23/07/03","14:50",0.0,31.2,63.1,999.8,346.7,1.5,3.1,344.1,0.12,23.4,24.2,"14:40:08",1
"23/07/03","15:00",0.0,31.6,64.5,999.8,328.3,1.0,2.1,348.5,0.15,24.1,24.2,"14:53:44",1
"23/07/03","15:10",0.0,31.5,64.1,999.8,300.4,0.8,1.8,240.2,0.15,23.9,24.1,"15:06:00",1
"23/07/03","15:20",0.0,31.4,64.1,999.8,326.5,0.7,1.6,336.5,0.12,23.8,24.2,"15:16:16",1
"23/07/03","15:30",0.0,31.2,64.6,999.3,322.8,1.0,2.6,354.8,0.10,23.8,24.2,"15:29:44",1
"23/07/03","15:40",0.0,31.1,67.4,999.3,356.5,1.0,1.8,353.7,0.10,24.4,24.0,"15:30:08",1
"23/07/03","15:50",0.0,30.8,67.8,999.3,356.2,0.8,1.7,354.0,0.11,24.2,24.3,"15:45:04",1
"23/07/03","16:00",0.0,31.1,67.3,998.9,347.5,0.8,1.7,344.2,0.14,24.4,24.3,"15:54:16",1
"23/07/03","16:10",0.0,31.3,67.1,998.9,334.1,0.8,2.4,350.8,0.15,24.5,24.3,"16:04:56",1
"23/07/03","16:20",0.0,31.3,67.4,999.1,342.5,0.7,1.4,348.7,0.13,24.6,24.2,"16:17:44",1
"23/07/03","16:30",0.0,31.3,66.8,998.9,341.9,0.7,1.8,341.0,0.12,24.4,24.5,"16:26:08",1
"23/07/03","16:40",0.0,31.2,66.4,998.9,321.9,1.0,1.9,336.4,0.13,24.2,24.3,"16:36:08",1
"23/07/03","16:50",0.0,31.1,65.4,999.1,308.5,1.0,2.5,351.4,0.12,23.9,24.1,"16:49:04",1
"23/07/03","17:00",0.0,31.2,66.5,998.9,320.1,0.8,2.4,350.5,0.12,24.3,24.3,"16:56:48",1
"23/07/03","17:10",0.0,31.2,67.8,999.1,335.5,1.0,2.4,356.4,0.14,24.6,24.3,"17:04:56",1
"23/07/03","17:20",0.0,32.0,65.5,999.3,333.5,1.2,3.5,347.3,0.22,24.8,24.3,"17:13:12",1
"23/07/03","17:30",0.0,32.1,63.8,999.1,324.9,1.0,3.1,337.3,0.18,24.4,24.4,"17:25:44",1
"23/07/03","17:40",0.0,31.7,62.2,999.3,307.2,1.2,2.9,0.3,0.12,23.6,24.2,"17:33:04",1
"23/07/03","17:50",0.0,31.6,62.8,999.3,317.1,1.7,3.4,348.6,0.10,23.7,24.2,"17:48:16",1
"23/07/03","18:00",0.0,31.7,61.9,998.9,261.7,1.1,3.2,216.8,0.06,23.5,24.3,"17:55:12",1
"23/07/03","18:10",0.0,31.5,62.8,999.1,276.4,1.1,2.6,285.6,0.04,23.6,24.4,"18:02:40",1
"23/07/03","18:20",0.0,31.5,63.3,998.9,295.4,1.5,3.1,347.7,0.05,23.7,24.5,"18:16:00",1
"23/07/03","18:30",0.0,31.6,63.0,998.9,297.2,1.1,2.4,297.5,0.02,23.7,24.3,"18:22:00",1
"23/07/03","18:40",0.0,31.5,63.1,998.9,324.9,1.2,2.8,312.2,0.02,23.7,24.4,"18:36:16",1
"23/07/03","18:50",0.0,31.6,66.1,998.9,337.9,1.1,1.9,348.3,0.01,24.5,24.4,"18:49:28",1
"23/07/03","19:00",0.0,31.2,67.5,998.6,339.6,1.1,1.9,345.3,0.01,24.5,24.4,"18:54:40",1
"23/07/03","19:10",0.0,30.8,68.6,998.4,342.6,1.5,2.4,344.5,0.02,24.4,24.5,"19:07:20",1
"23/07/03","19:20",0.0,30.3,70.0,998.4,341.1,1.3,2.9,352.5,0.01,24.3,24.4,"19:11:44",1
"23/07/03","19:30",0.0,29.7,71.6,998.2,331.2,1.1,2.0,344.3,0.00,24.1,24.5,"19:20:02",1
"23/07/03","19:40",0.0,29.1,73.6,997.4,335.8,1.3,2.7,349.8,0.00,23.9,24.5,"19:32:40",1
"23/07/03","19:50",0.0,28.4,76.1,997.0,337.9,1.7,3.6,322.7,0.00,23.8,24.5,"19:47:36",1
"23/07/03","20:00",0.0,28.0,77.7,997.4,338.1,2.0,3.6,343.7,0.00,23.8,24.5,"19:57:04",1
"23/07/03","20:10",0.0,27.8,78.5,997.7,331.2,1.8,3.7,347.6,0.00,23.8,24.2,"20:02:24",1
"23/07/03","20:20",0.0,27.6,79.0,997.7,324.0,1.8,3.3,337.3,0.00,23.7,24.4,"20:16:08",1
"23/07/03","20:30",0.0,27.6,78.9,997.7,328.3,2.6,4.0,320.0,0.00,23.6,24.6,"20:20:32",1
"23/07/03","20:40",0.0,27.5,79.1,997.4,334.9,2.3,4.3,346.3,0.00,23.6,24.5,"20:31:04",1
"23/07/03","20:50",0.0,27.3,79.5,998.2,321.0,1.8,3.9,335.1,0.00,23.5,24.4,"20:41:20",1
"23/07/03","21:00",0.0,27.0,79.9,998.2,322.0,1.0,2.1,329.7,0.00,23.3,24.3,"20:58:32",1
"23/07/03","21:10",0.0,26.8,80.0,998.9,326.2,1.8,3.4,326.3,0.00,23.1,24.2,"21:08:32",1
"23/07/03","21:20",0.0,26.7,80.0,998.9,352.0,1.6,3.4,325.3,0.00,23.0,24.3,"21:16:40",1
"23/07/03","21:30",0.0,26.5,80.2,999.1,353.0,1.3,3.9,330.9,0.00,22.8,24.3,"21:22:16",1
"23/07/03","21:40",0.0,26.1,80.7,999.1,349.4,1.1,2.6,339.7,0.00,22.6,24.3,"21:33:04",1
"23/07/03","21:50",0.0,26.0,81.0,999.3,344.5,1.2,2.6,0.1,0.00,22.5,24.3,"21:41:12",1
"23/07/03","22:00",0.0,25.9,81.8,999.3,338.0,0.7,1.4,318.2,0.00,22.6,24.2,"21:51:36",1
"23/07/03","22:10",0.0,25.7,83.2,999.3,353.8,0.7,1.3,349.5,0.00,22.7,24.2,"22:05:48",1
"23/07/03","22:20",0.0,25.3,84.3,999.6,347.6,0.8,1.6,357.7,0.00,22.5,24.4,"22:12:24",1
"23/07/03","22:30",0.0,25.1,85.5,999.6,343.1,1.0,2.2,354.2,0.00,22.5,24.1,"22:23:28",1
"23/07/03","22:40",0.0,24.9,86.4,999.3,355.1,0.8,1.4,344.1,0.00,22.5,24.2,"22:31:20",1
"23/07/03","22:50",0.0,24.7,87.1,999.3,353.4,1.1,1.9,348.7,0.00,22.4,24.3,"22:49:36",1
"23/07/03","23:00",0.0,24.4,87.8,999.3,344.7,1.3,2.5,339.8,0.00,22.3,24.0,"22:57:20",1
"23/07/03","23:10",0.0,24.3,88.5,999.6,335.6,1.5,2.2,336.3,0.00,22.3,24.2,"23:03:28",1
"23/07/03","23:20",0.0,24.2,89.1,999.6,332.6,2.2,3.6,338.5,0.00,22.3,24.0,"23:19:44",1
"23/07/03","23:30",0.0,24.3,89.1,999.3,331.2,2.5,4.0,337.8,0.00,22.4,24.0,"23:23:28",1
"23/07/03","23:40",0.0,24.2,89.2,999.3,333.6,2.0,3.3,342.6,0.00,22.3,24.0,"23:38:32",1
"23/07/03","23:50",0.0,24.1,89.4,999.3,341.5,1.5,2.9,327.5,0.00,22.3,24.1,"23:46:08",1
"23/07/03","24:00",0.0,24.0,89.6,999.3,336.4,1.8,3.5,308.1,0.00,22.2,23.9,"23:54:16",1
